Wind_Speed
11 13 15 16 17 17 17 17 17 17 16 16 16 17 18 19 19 20 21 21 21 22 22 23 24 24 24 25 26 27 27 28 28 29 29 29 30 30 30 31 31 30 30
11 12 14 15 16 17 17 17 16 16 16 16 17 18 19 20 20 21 22 23 24 24 24 25 26 27 28 28 29 30 31 31 32 32 33 33 33 34 34 34 34 34 34
8 10 12 14 15 16 16 16 16 17 17 17 18 19 20 21 22 23 24 25 26 27 28 29 29 30 31 32 32 32 33 34 35 35 36 37 37 38 38 38 38 37 37
6 8 11 13 14 15 16 16 17 18 18 19 19 20 21 22 23 25 26 27 28 29 30 31 32 33 34 35 35 36 37 38 38 38 39 40 40 41 41 42 42 42 42
6 8 10 12 13 14 15 16 17 18 19 20 20 21 22 23 25 26 27 28 30 31 32 34 35 35 37 37 38 39 40 41 41 42 42 43 43 43 43 44 44 44 45
9 9 10 11 13 14 15 17 18 19 20 20 21 22 24 25 26 27 29 31 32 33 34 35 37 37 38 39 40 41 43 44 44 45 45 45 45 46 46 47 47 48 47
12 12 12 13 14 15 16 17 18 19 20 21 23 24 25 26 28 30 32 33 34 35 36 37 39 39 41 42 43 44 45 46 47 48 48 47 47 48 48 49 49 49 48
15 15 16 16 17 17 18 19 20 21 22 23 25 26 28 30 31 33 34 36 37 38 39 40 41 42 43 44 46 46 47 47 47 48 49 50 51 51 52 52 53 53 52
18 18 18 19 19 19 20 21 22 23 24 26 27 29 31 32 34 36 37 38 39 40 42 43 44 45 46 47 48 48 49 49 50 50 50 51 52 52 53 54 54 55 54
20 20 20 21 20 21 22 23 24 25 26 28 30 31 33 35 36 37 39 40 41 43 44 45 45 46 48 49 51 51 52 52 53 53 53 54 55 55 55 56 55 55 56
21 22 23 23 23 23 24 25 26 28 30 31 32 34 36 37 38 39 41 42 44 45 46 47 48 49 50 51 52 53 53 54 54 55 56 57 57 58 58 57 57 58 58
24 24 24 24 25 25 27 28 29 30 31 33 34 36 37 39 41 42 44 45 46 47 48 49 50 51 53 54 54 55 55 56 56 56 57 57 58 58 59 59 60 60 60
26 26 26 26 27 27 28 30 31 32 33 35 37 39 41 42 43 44 45 47 48 50 51 52 53 53 54 55 55 56 56 56 57 57 58 58 59 60 60 61 61 62 62
28 28 28 29 29 30 32 33 33 34 36 38 39 41 42 44 45 46 48 49 51 52 53 54 55 55 55 56 56 56 56 57 57 58 59 59 60 60 61 61 62 62 62
30 30 30 30 31 33 34 35 36 37 38 40 42 43 45 46 47 49 50 51 52 53 54 54 55 55 55 56 56 56 57 57 57 57 58 58 59 59 60 60 60 60 59
30 31 32 32 33 34 35 37 38 39 40 42 44 45 47 48 50 50 51 52 53 53 54 55 55 55 55 55 55 55 56 56 56 56 56 56 56 55 55 55 55 54 54
30 31 32 33 34 35 36 37 39 41 42 44 45 47 49 50 50 51 52 52 53 53 54 54 54 54 53 53 53 53 52 52 52 51 50 50 50 49 49 48 48 48 48
29 30 31 32 34 36 37 39 41 43 44 46 47 48 49 50 51 51 52 52 53 54 53 52 52 51 50 50 49 48 47 46 46 45 44 43 43 42 42 41 41 41 41
29 30 31 33 35 37 39 41 42 44 46 47 48 49 49 50 50 51 51 52 52 51 50 49 48 47 47 46 45 44 43 41 40 39 39 38 37 36 36 36 36 36 35
29 31 33 35 37 39 40 42 44 45 47 48 49 49 49 49 49 49 49 48 47 46 45 45 44 43 42 41 40 38 37 36 35 35 34 33 32 32 31 31 30 30 30
31 33 35 37 38 40 42 44 45 47 47 48 47 47 47 47 47 46 45 44 42 41 41 40 40 39 37 36 35 34 33 32 31 29 29 28 28 27 27 27 27 27 26
33 35 36 38 40 42 44 45 46 46 46 46 46 45 44 44 43 42 41 40 39 39 38 37 37 35 34 32 31 30 29 28 27 26 26 26 26 26 25 24 24 24 24
35 37 39 40 41 43 43 44 44 44 44 43 43 42 41 41 40 40 39 37 36 36 36 35 33 32 31 29 28 27 26 25 25 24 24 24 24 25 24 24 23 23 23
38 39 40 40 41 42 42 42 42 41 41 40 40 39 39 38 38 37 36 35 34 33 33 31 30 29 28 27 26 25 25 24 23 23 23 23 23 23 23 22 22 22 22
39 39 40 40 40 40 40 40 39 39 38 38 37 37 36 36 35 34 33 32 32 31 30 29 28 27 26 25 25 24 23 22 22 22 22 22 22 22 22 22 22 21 22
38 38 39 38 38 38 38 38 37 37 36 35 35 35 34 34 33 32 32 31 30 30 29 28 27 27 26 25 24 24 23 23 22 22 22 22 22 21 22 22 21 21 21
Wind_Direction
204 210 213 214 214 215 216 220 224 227 230 234 239 243 245 249 253 254 256 257 260 263 264 265 266 267 269 271 273 273 274 276 277 277 278 277 277 276 276 276 277 277 277
214 215 214 214 216 219 222 224 227 231 235 241 246 249 251 254 257 259 261 263 264 266 267 268 270 271 272 273 275 275 275 276 276 277 278 278 277 276 276 276 276 276 276
222 220 219 221 221 224 226 230 234 238 243 247 251 255 256 259 262 264 265 267 269 269 270 271 272 273 273 274 275 276 276 277 277 276 277 277 276 276 275 275 275 275 276
238 235 232 226 226 230 231 235 241 245 248 252 256 261 263 265 266 267 268 269 271 272 273 273 274 274 275 275 275 276 276 276 276 277 277 277 276 275 274 274 274 275 275
257 248 237 234 235 237 241 244 246 250 254 257 262 265 267 268 270 271 272 273 274 274 276 276 276 276 276 276 276 276 277 277 276 277 276 277 276 275 274 274 274 275 275
256 249 245 245 244 247 251 252 253 257 260 263 265 268 271 272 273 274 276 277 277 277 277 277 278 279 278 278 278 279 279 277 277 277 276 276 276 275 274 274 274 274 274
256 255 253 252 254 255 258 260 261 262 263 266 270 272 275 276 278 279 280 280 280 281 281 281 281 281 281 281 280 281 280 279 278 277 277 277 276 275 275 275 275 275 274
256 256 256 259 259 260 263 265 266 268 269 270 274 276 278 279 281 283 283 284 283 282 282 282 282 282 282 282 282 281 281 282 280 278 278 276 276 276 276 276 275 275 275
256 256 257 260 262 266 268 270 271 272 274 277 278 279 280 281 283 283 283 283 283 283 282 282 282 282 281 282 282 281 282 282 281 280 279 278 278 278 277 276 276 276 275
256 256 259 260 262 266 269 272 274 275 277 279 279 280 281 282 283 284 285 284 284 284 284 283 283 282 282 281 282 282 282 282 282 281 280 280 279 279 278 278 277 277 276
256 258 261 263 268 271 273 275 276 278 279 279 280 281 282 282 284 285 285 285 285 285 285 284 284 283 283 283 283 283 282 282 282 281 280 280 280 280 280 279 278 278 278
257 260 263 266 270 272 274 276 278 278 279 280 281 282 283 284 285 286 286 286 286 286 286 286 285 285 285 284 284 283 282 282 281 281 280 280 280 280 280 280 279 279 279
259 261 264 267 270 274 276 278 278 278 280 282 284 285 286 286 286 286 286 286 286 287 287 287 287 286 286 285 284 283 282 282 282 282 281 281 281 280 280 280 280 280 280
261 263 266 270 273 275 277 279 281 283 284 286 288 288 289 289 288 288 289 288 288 289 289 289 289 288 287 286 285 284 284 283 282 282 282 281 281 281 281 281 281 281 281
263 267 268 271 274 276 278 281 284 286 288 289 290 290 290 290 290 291 291 291 292 292 292 291 291 290 289 288 287 287 286 285 284 283 282 282 282 282 282 281 281 281 280
267 269 270 271 274 278 281 284 286 288 289 290 291 292 292 292 292 293 294 294 294 294 294 293 293 292 291 290 289 288 288 287 286 285 284 284 284 283 283 283 282 281 281
269 271 271 274 278 281 284 287 289 289 290 292 293 294 295 295 296 296 296 296 296 296 296 295 294 293 292 291 290 289 289 288 287 286 286 285 285 284 284 283 282 282 281
272 274 276 280 283 285 288 290 291 292 294 295 296 297 298 298 298 298 298 298 298 298 297 297 296 295 294 293 292 291 290 289 288 288 287 286 286 285 284 284 284 284 283
276 279 283 285 287 289 291 293 294 296 297 298 298 299 299 300 300 300 300 300 300 299 298 297 297 296 295 295 293 292 291 290 289 288 288 287 287 286 286 285 286 286 285
283 285 287 289 291 293 295 296 297 298 299 300 300 301 301 302 302 302 303 302 302 301 300 300 300 299 298 298 296 295 293 292 290 289 289 289 289 288 289 288 287 287 287
288 290 292 293 295 296 298 298 299 300 301 301 302 303 303 304 304 305 305 304 304 303 304 303 303 302 301 300 298 296 294 293 292 291 290 290 290 291 292 291 290 290 289
292 294 295 297 298 299 300 301 302 302 302 303 303 303 304 304 305 305 305 305 305 305 305 305 305 304 302 301 300 299 297 295 294 292 292 291 292 293 293 293 293 292 291
296 297 298 299 300 301 302 303 303 303 303 303 303 304 304 304 305 306 306 307 307 306 306 306 305 304 303 302 300 299 298 296 295 293 292 292 293 294 294 294 294 295 294
299 300 300 301 302 303 303 304 304 304 305 305 305 305 305 305 306 307 307 307 307 307 307 307 306 306 304 303 302 302 300 298 297 295 293 292 293 295 295 295 295 295 295
301 301 302 302 303 304 304 304 305 306 306 306 306 306 306 306 306 307 307 307 307 308 307 307 307 306 305 304 303 302 301 299 298 297 295 294 295 296 296 297 296 296 296
301 302 302 303 303 304 305 305 306 306 307 308 307 307 306 306 306 306 307 308 308 308 308 307 306 305 305 304 303 301 300 300 300 299 298 297 297 296 297 297 296 296 296
Height
5831 5833 5836 5838 5841 5843 5846 5848 5851 5853 5855 5857 5858 5859 5860 5861 5861 5862 5862 5863 5863 5863 5863 5864 5864 5863 5863 5862 5862 5861 5860 5859 5858 5857 5856 5855 5854 5853 5852 5852 5851 5850 5850
5830 5832 5834 5836 5838 5841 5843 5845 5848 5850 5852 5853 5854 5855 5856 5856 5857 5857 5857 5858 5858 5858 5858 5858 5857 5857 5856 5856 5855 5854 5853 5852 5851 5849 5848 5847 5846 5845 5844 5843 5842 5842 5841
5829 5831 5832 5834 5836 5839 5841 5843 5845 5846 5848 5849 5850 5850 5851 5851 5852 5852 5852 5852 5851 5851 5851 5850 5850 5849 5848 5848 5847 5846 5845 5843 5842 5841 5839 5838 5837 5836 5835 5834 5833 5832 5831
5828 5829 5831 5832 5834 5836 5838 5839 5841 5842 5843 5844 5845 5845 5846 5846 5846 5846 5845 5845 5844 5844 5843 5842 5841 5841 5840 5839 5837 5836 5835 5834 5833 5831 5830 5828 5827 5825 5824 5823 5822 5822 5821
5827 5828 5829 5830 5832 5833 5834 5836 5837 5838 5839 5839 5840 5840 5840 5840 5839 5839 5838 5837 5837 5836 5835 5834 5833 5832 5830 5829 5828 5826 5825 5823 5822 5821 5819 5817 5816 5814 5813 5812 5810 5810 5809
5826 5826 5827 5828 5829 5830 5831 5831 5832 5833 5833 5834 5834 5834 5833 5833 5833 5832 5831 5829 5828 5827 5825 5824 5823 5821 5820 5818 5817 5815 5813 5812 5810 5808 5807 5806 5804 5802 5801 5799 5798 5797 5797
5823 5824 5824 5825 5826 5826 5827 5827 5827 5828 5828 5828 5828 5827 5827 5826 5825 5824 5822 5821 5819 5818 5816 5814 5812 5810 5808 5807 5804 5802 5800 5798 5797 5795 5794 5793 5790 5789 5787 5786 5784 5783 5783
5819 5820 5820 5821 5821 5822 5822 5822 5822 5822 5822 5822 5821 5820 5820 5819 5817 5816 5814 5812 5810 5808 5806 5804 5801 5799 5797 5795 5792 5790 5788 5785 5784 5781 5780 5778 5776 5774 5773 5771 5769 5768 5767
5815 5815 5816 5816 5816 5816 5817 5817 5816 5816 5815 5814 5813 5812 5811 5810 5808 5806 5804 5802 5800 5797 5795 5793 5790 5788 5785 5782 5780 5777 5774 5772 5769 5767 5765 5763 5761 5759 5757 5755 5753 5752 5752
5809 5810 5810 5810 5810 5811 5810 5810 5809 5809 5808 5807 5805 5804 5802 5800 5799 5796 5794 5791 5789 5786 5783 5781 5778 5775 5772 5769 5766 5763 5760 5757 5755 5752 5750 5747 5745 5743 5741 5739 5737 5736 5735
5804 5804 5804 5804 5804 5804 5804 5803 5802 5801 5800 5798 5797 5795 5793 5791 5788 5786 5783 5780 5777 5774 5771 5768 5765 5762 5758 5755 5752 5748 5745 5742 5739 5736 5734 5731 5728 5726 5724 5721 5720 5718 5717
5797 5798 5798 5798 5798 5797 5796 5796 5795 5793 5791 5789 5787 5785 5783 5780 5777 5774 5771 5768 5764 5761 5757 5754 5750 5747 5743 5739 5736 5732 5729 5726 5723 5719 5716 5714 5711 5708 5706 5703 5701 5699 5698
5791 5791 5791 5791 5790 5789 5788 5787 5786 5784 5782 5780 5777 5775 5772 5769 5765 5762 5759 5755 5751 5747 5743 5739 5735 5730 5727 5723 5719 5715 5712 5708 5705 5702 5699 5696 5693 5690 5688 5685 5682 5680 5679
5783 5784 5783 5783 5782 5781 5780 5778 5776 5774 5772 5769 5766 5763 5760 5757 5753 5749 5745 5741 5737 5732 5728 5723 5718 5714 5709 5705 5702 5698 5694 5691 5687 5684 5680 5677 5674 5671 5668 5666 5663 5661 5659
5775 5775 5775 5774 5773 5772 5770 5769 5766 5764 5761 5758 5755 5751 5748 5744 5740 5735 5730 5726 5721 5716 5711 5706 5702 5697 5692 5688 5683 5680 5676 5672 5669 5665 5662 5659 5656 5653 5650 5646 5644 5641 5639
5767 5767 5766 5765 5764 5762 5761 5759 5756 5753 5750 5747 5743 5739 5735 5730 5725 5721 5716 5710 5705 5700 5695 5690 5685 5680 5675 5670 5666 5661 5657 5654 5650 5646 5643 5640 5637 5634 5631 5628 5625 5622 5620
5759 5758 5757 5756 5754 5752 5750 5748 5745 5742 5738 5734 5730 5726 5721 5716 5711 5706 5701 5695 5690 5684 5679 5674 5668 5663 5658 5653 5648 5644 5640 5636 5632 5628 5625 5622 5619 5616 5613 5611 5608 5606 5603
5750 5749 5748 5746 5745 5742 5740 5737 5733 5729 5726 5721 5717 5712 5707 5702 5696 5691 5685 5680 5674 5669 5663 5657 5652 5647 5642 5637 5632 5628 5624 5620 5616 5613 5610 5607 5604 5601 5599 5596 5594 5591 5589
5742 5740 5739 5737 5735 5732 5729 5725 5721 5717 5712 5708 5703 5698 5693 5687 5682 5676 5670 5665 5659 5653 5647 5642 5637 5632 5627 5622 5618 5614 5610 5606 5603 5600 5597 5594 5592 5589 5587 5584 5582 5579 5577
5733 5731 5729 5727 5724 5721 5717 5713 5709 5704 5699 5694 5689 5684 5679 5673 5668 5662 5657 5651 5645 5639 5634 5628 5623 5618 5613 5609 5604 5601 5597 5594 5591 5588 5586 5583 5581 5578 5576 5573 5571 5568 5566
5724 5722 5719 5716 5713 5709 5705 5701 5696 5691 5686 5681 5676 5670 5665 5660 5654 5649 5643 5638 5632 5627 5622 5616 5611 5606 5602 5597 5593 5590 5587 5584 5581 5578 5576 5574 5571 5569 5567 5564 5562 5559 5557
5715 5712 5709 5705 5702 5697 5693 5688 5683 5678 5673 5668 5663 5658 5653 5648 5642 5637 5632 5627 5621 5616 5611 5606 5601 5596 5592 5588 5584 5581 5577 5574 5572 5570 5567 5565 5563 5561 5559 5556 5554 5551 5549
5705 5701 5698 5694 5690 5685 5681 5676 5671 5666 5661 5656 5651 5646 5641 5636 5631 5626 5621 5616 5611 5606 5601 5596 5592 5587 5583 5579 5576 5573 5570 5567 5564 5562 5560 5558 5555 5553 5551 5549 5546 5544 5542
5694 5690 5686 5682 5678 5674 5669 5664 5659 5654 5650 5645 5640 5635 5630 5625 5621 5616 5611 5606 5601 5597 5592 5588 5583 5579 5575 5572 5568 5565 5562 5560 5557 5555 5553 5551 5548 5546 5544 5541 5539 5537 5534
5683 5679 5675 5671 5667 5662 5658 5653 5648 5644 5639 5634 5629 5625 5620 5616 5611 5607 5602 5597 5593 5588 5584 5580 5576 5572 5568 5565 5561 5558 5555 5553 5550 5548 5546 5544 5541 5539 5537 5534 5532 5530 5528
5672 5668 5664 5660 5656 5652 5647 5643 5638 5634 5629 5625 5620 5615 5611 5607 5602 5598 5594 5589 5585 5581 5576 5572 5568 5565 5561 5558 5555 5552 5549 5546 5544 5541 5539 5537 5534 5532 5530 5528 5525 5523 5521